Location: Unspecified
(0.0000°N, 0.0000°E)
Time: 07:54:32
(UTC+01:00)

H-2A R/B - Visible Passes

Search period start: 10 December 2016 00:00
Search period end: 20 December 2016 00:00
Orbit: 282 x 33146 km, 27.9° (Epoch: 08 December)

Date Brightness Start Highest point End Pass type
(mag) Time Alt. Az. Time Alt. Az. Time Alt. Az.
10 Dec 4.5 21:48:09 10° W 23:02:44 22° WSW 06:21:52 10° NE visible
11 Dec 6.8 16:27:25 10° WNW 16:55:53 88° NE 01:32:22 10° E visible
12 Dec 8.8 16:35:40 10° ESE 18:25:46 15° ESE 19:36:36 10° ESE visible
12 Dec 9.6 22:51:58 10° WSW 23:37:27 13° WSW 00:44:34 10° WSW visible
13 Dec 3.8 06:34:53 10° WSW 06:48:54 28° NW 06:52:42 10° NNE visible
13 Dec 6.5 16:59:47 10° WNW 17:38:36 82° SW 02:05:29 10° E visible
14 Dec 5.1 12:14:48 10° N 18:55:56 23° ESE 20:35:51 10° ESE visible
15 Dec 6.3 17:32:33 10° WNW 18:26:35 73° SW 02:38:06 10° E visible
16 Dec 5.2 12:44:50 10° N 19:26:25 31° SE 21:22:14 10° ESE visible
17 Dec 6.0 18:05:55 10° WNW 19:16:25 64° SW 03:10:16 10° E visible
18 Dec 5.3 13:15:31 10° NNW 19:57:05 38° SE 22:03:14 10° ESE visible
